contact:dominique.lefevre@mio.osupytheas.fr, maurice.libes@osupytheas.fr, didier.mallarino@osupytheas.fr
Project:EMSO http://www.emso-fr.org/EMSO-France
Depth: 2436.0 m
Title:EMSO Ligure Ouest : Data MII capteur CSTAR
DateTime,Latitude,Longitude,Instrument_Serial,Reference_Counts,Signal_Counts,Corrected_Signal_raw_counts,Calculated_Beam_c_inverse_meters,Internal_thermistor_counts
DateTime,Latitude,Longitude,Instrument_Serial,Reference_Counts,Signal_Counts,Corrected_Signal_raw_counts,Calculated_Beam_c_inverse_meters,Internal_thermistor_counts
2020-02-03T00:00:11,42.805,6.029,CST-1368DR,6849,9600,15243,0.097,551
2020-02-03T00:03:13,42.805,6.029,CST-1368DR,6849,9600,15244,0.096,551
2020-02-03T00:06:14,42.805,6.029,CST-1368DR,6849,9599,15243,0.097,551
2020-02-03T00:09:16,42.805,6.029,CST-1368DR,6849,9597,15239,0.098,551
2020-02-03T00:12:18,42.805,6.029,CST-1368DR,6849,9599,15242,0.097,551
2020-02-03T00:15:19,42.805,6.029,CST-1368DR,6849,9598,15241,0.097,551
2020-02-03T00:18:21,42.805,6.029,CST-1368DR,6849,9598,15241,0.097,551
2020-02-03T00:21:22,42.805,6.029,CST-1368DR,6849,9598,15241,0.097,551
2020-02-03T00:24:24,42.805,6.029,CST-1368DR,6849,9600,15243,0.097,551
2020-02-03T00:27:26,42.805,6.029,CST-1368DR,6849,9599,15241,0.097,551
2020-02-03T00:30:27,42.805,6.029,CST-1368DR,6849,9599,15242,0.097,551
2020-02-03T00:33:29,42.805,6.029,CST-1368DR,6849,9598,15240,0.097,551
2020-02-03T00:36:31,42.805,6.029,CST-1368DR,6849,9599,15241,0.097,551
2020-02-03T00:39:32,42.805,6.029,CST-1368DR,6849,9599,15241,0.097,551
2020-02-03T00:42:34,42.805,6.029,CST-1368DR,6849,9599,15242,0.097,551
2020-02-03T00:45:36,42.805,6.029,CST-1368DR,6849,9600,15244,0.096,551
2020-02-03T00:48:37,42.805,6.029,CST-1368DR,6849,9599,15243,0.097,551
2020-02-03T00:51:39,42.805,6.029,CST-1368DR,6849,9601,15245,0.096,551
2020-02-03T00:54:41,42.805,6.029,CST-1368DR,6849,9600,15243,0.097,551
2020-02-03T00:57:42,42.805,6.029,CST-1368DR,6849,9599,15242,0.097,551
2020-02-03T01:00:45,42.805,6.029,CST-1368DR,6849,9599,15242,0.097,551
2020-02-03T01:03:46,42.805,6.029,CST-1368DR,6849,9596,15238,0.098,551
2020-02-03T01:06:48,42.805,6.029,CST-1368DR,6849,9599,15242,0.097,551
2020-02-03T01:09:50,42.805,6.029,CST-1368DR,6849,9600,15243,0.097,551
2020-02-03T01:12:51,42.805,6.029,CST-1368DR,6849,9600,15243,0.097,551
2020-02-03T01:15:53,42.805,6.029,CST-1368DR,6849,9598,15240,0.097,551
2020-02-03T01:18:55,42.805,6.029,CST-1368DR,6849,9599,15241,0.097,551
2020-02-03T01:21:56,42.805,6.029,CST-1368DR,6849,9600,15243,0.097,551
2020-02-03T01:24:58,42.805,6.029,CST-1368DR,6849,9599,15242,0.097,551
2020-02-03T01:28:00,42.805,6.029,CST-1368DR,6849,9599,15242,0.097,551
2020-02-03T01:31:01,42.805,6.029,CST-1368DR,6848,9600,15245,0.096,550
2020-02-03T01:34:03,42.805,6.029,CST-1368DR,6848,9600,15246,0.096,551
2020-02-03T01:37:05,42.805,6.029,CST-1368DR,6848,9600,15246,0.096,551
2020-02-03T01:40:06,42.805,6.029,CST-1368DR,6848,9597,15241,0.097,551
2020-02-03T01:43:08,42.805,6.029,CST-1368DR,6849,9599,15241,0.097,551
2020-02-03T01:46:09,42.805,6.029,CST-1368DR,6849,9599,15242,0.097,551
2020-02-03T01:49:11,42.805,6.029,CST-1368DR,6848,9598,15243,0.097,551
2020-02-03T01:52:13,42.805,6.029,CST-1368DR,6848,9598,15242,0.097,551
2020-02-03T01:55:14,42.805,6.029,CST-1368DR,6848,9598,15243,0.097,551
2020-02-03T01:58:16,42.805,6.029,CST-1368DR,6848,9598,15243,0.097,551
2020-02-03T02:01:18,42.805,6.029,CST-1368DR,6848,9598,15243,0.097,551
2020-02-03T02:04:19,42.805,6.029,CST-1368DR,6848,9599,15244,0.096,551
2020-02-03T02:07:21,42.805,6.029,CST-1368DR,6848,9598,15243,0.097,551
2020-02-03T02:10:23,42.805,6.029,CST-1368DR,6848,9599,15244,0.096,550
2020-02-03T02:13:24,42.805,6.029,CST-1368DR,6848,9598,15243,0.097,551
2020-02-03T02:16:26,42.805,6.029,CST-1368DR,6848,9598,15243,0.097,551
2020-02-03T02:19:28,42.805,6.029,CST-1368DR,6848,9598,15242,0.097,551
2020-02-03T02:22:29,42.805,6.029,CST-1368DR,6848,9597,15241,0.097,550
2020-02-03T02:25:31,42.805,6.029,CST-1368DR,6848,9596,15240,0.097,551
2020-02-03T02:28:33,42.805,6.029,CST-1368DR,6848,9598,15243,0.097,551
2020-02-03T02:31:34,42.805,6.029,CST-1368DR,6848,9598,15243,0.097,551
2020-02-03T02:34:36,42.805,6.029,CST-1368DR,6848,9597,15241,0.097,551
2020-02-03T02:37:37,42.805,6.029,CST-1368DR,6848,9597,15242,0.097,550
2020-02-03T02:40:39,42.805,6.029,CST-1368DR,6848,9597,15241,0.097,551
2020-02-03T02:43:41,42.805,6.029,CST-1368DR,6848,9596,15240,0.097,551
2020-02-03T02:46:42,42.805,6.029,CST-1368DR,6848,9596,15240,0.097,551
2020-02-03T02:49:44,42.805,6.029,CST-1368DR,6848,9597,15241,0.097,551
2020-02-03T02:52:46,42.805,6.029,CST-1368DR,6848,9597,15240,0.097,551
2020-02-03T02:55:47,42.805,6.029,CST-1368DR,6848,9596,15240,0.097,550
2020-02-03T02:58:49,42.805,6.029,CST-1368DR,6848,9596,15239,0.098,551
2020-02-03T03:01:51,42.805,6.029,CST-1368DR,6848,9596,15240,0.097,551
2020-02-03T03:04:52,42.805,6.029,CST-1368DR,6848,9596,15240,0.097,551
2020-02-03T03:07:54,42.805,6.029,CST-1368DR,6848,9596,15240,0.097,551
2020-02-03T03:10:56,42.805,6.029,CST-1368DR,6848,9596,15240,0.097,551
2020-02-03T03:13:57,42.805,6.029,CST-1368DR,6848,9596,15240,0.097,551
2020-02-03T03:16:59,42.805,6.029,CST-1368DR,6848,9596,15239,0.098,551
2020-02-03T03:20:01,42.805,6.029,CST-1368DR,6848,9596,15240,0.097,551
2020-02-03T03:23:02,42.805,6.029,CST-1368DR,6848,9596,15239,0.098,551
2020-02-03T03:26:04,42.805,6.029,CST-1368DR,6848,9596,15240,0.097,551
2020-02-03T03:29:05,42.805,6.029,CST-1368DR,6848,9596,15240,0.097,551
2020-02-03T03:32:07,42.805,6.029,CST-1368DR,6848,9597,15241,0.097,551
2020-02-03T03:35:09,42.805,6.029,CST-1368DR,6848,9597,15242,0.097,551
2020-02-03T03:38:10,42.805,6.029,CST-1368DR,6848,9595,15238,0.098,551
2020-02-03T03:41:12,42.805,6.029,CST-1368DR,6848,9597,15241,0.097,551
2020-02-03T03:44:14,42.805,6.029,CST-1368DR,6848,9591,15232,0.100,551
2020-02-03T03:47:15,42.805,6.029,CST-1368DR,6848,9597,15240,0.097,551
2020-02-03T03:50:17,42.805,6.029,CST-1368DR,6848,9597,15240,0.097,551
2020-02-03T03:53:18,42.805,6.029,CST-1368DR,6848,9597,15240,0.097,551
2020-02-03T03:56:20,42.805,6.029,CST-1368DR,6848,9597,15241,0.097,551
2020-02-03T03:59:22,42.805,6.029,CST-1368DR,6848,9596,15240,0.097,551
2020-02-03T04:02:23,42.805,6.029,CST-1368DR,6848,9597,15241,0.097,551
2020-02-03T04:05:25,42.805,6.029,CST-1368DR,6848,9597,15241,0.097,550
2020-02-03T04:08:27,42.805,6.029,CST-1368DR,6848,9597,15240,0.097,551
2020-02-03T04:11:28,42.805,6.029,CST-1368DR,6848,9597,15241,0.097,551
2020-02-03T04:14:30,42.805,6.029,CST-1368DR,6848,9597,15241,0.097,551
2020-02-03T04:17:31,42.805,6.029,CST-1368DR,6848,9596,15240,0.097,551
2020-02-03T04:20:33,42.805,6.029,CST-1368DR,6848,9597,15241,0.097,551
2020-02-03T04:23:35,42.805,6.029,CST-1368DR,6848,9596,15239,0.098,550
2020-02-03T04:26:37,42.805,6.029,CST-1368DR,6848,9595,15238,0.098,551
2020-02-03T04:29:38,42.805,6.029,CST-1368DR,6848,9595,15238,0.098,551
2020-02-03T04:32:40,42.805,6.029,CST-1368DR,6848,9597,15240,0.097,551
2020-02-03T04:35:41,42.805,6.029,CST-1368DR,6848,9596,15240,0.097,551
2020-02-03T04:38:43,42.805,6.029,CST-1368DR,6848,9597,15240,0.097,551
2020-02-03T04:41:45,42.805,6.029,CST-1368DR,6848,9596,15239,0.098,551
2020-02-03T04:44:46,42.805,6.029,CST-1368DR,6848,9597,15241,0.097,551
2020-02-03T04:47:48,42.805,6.029,CST-1368DR,6848,9598,15242,0.097,551
2020-02-03T04:50:50,42.805,6.029,CST-1368DR,6848,9597,15242,0.097,551
2020-02-03T04:53:51,42.805,6.029,CST-1368DR,6848,9597,15242,0.097,551
2020-02-03T04:56:53,42.805,6.029,CST-1368DR,6848,9598,15243,0.097,551
2020-02-03T04:59:55,42.805,6.029,CST-1368DR,6848,9599,15244,0.096,551
2020-02-03T05:02:56,42.805,6.029,CST-1368DR,6848,9599,15244,0.096,551
2020-02-03T05:05:58,42.805,6.029,CST-1368DR,6848,9598,15243,0.097,551
2020-02-03T05:08:59,42.805,6.029,CST-1368DR,6848,9598,15242,0.097,551
2020-02-03T05:12:01,42.805,6.029,CST-1368DR,6848,9598,15243,0.097,551
2020-02-03T05:15:03,42.805,6.029,CST-1368DR,6848,9596,15240,0.097,551
2020-02-03T05:18:04,42.805,6.029,CST-1368DR,6848,9598,15243,0.097,551
2020-02-03T05:21:06,42.805,6.029,CST-1368DR,6848,9595,15238,0.098,551
2020-02-03T05:24:08,42.805,6.029,CST-1368DR,6848,9597,15241,0.097,551
2020-02-03T05:27:09,42.805,6.029,CST-1368DR,6848,9597,15241,0.097,551
2020-02-03T05:30:11,42.805,6.029,CST-1368DR,6848,9596,15239,0.098,551
2020-02-03T05:33:12,42.805,6.029,CST-1368DR,6848,9595,15238,0.098,551
2020-02-03T05:36:14,42.805,6.029,CST-1368DR,6848,9598,15243,0.097,551
2020-02-03T05:39:16,42.805,6.029,CST-1368DR,6848,9597,15241,0.097,550
2020-02-03T05:42:17,42.805,6.029,CST-1368DR,6848,9597,15242,0.097,551
2020-02-03T05:45:19,42.805,6.029,CST-1368DR,6848,9597,15241,0.097,551
2020-02-03T05:48:21,42.805,6.029,CST-1368DR,6848,9598,15242,0.097,550
2020-02-03T05:51:22,42.805,6.029,CST-1368DR,6847,9597,15244,0.096,551
2020-02-03T05:54:24,42.805,6.029,CST-1368DR,6847,9597,15243,0.097,551
2020-02-03T05:57:25,42.805,6.029,CST-1368DR,6848,9599,15244,0.096,551
2020-02-03T06:00:27,42.805,6.029,CST-1368DR,6847,9597,15244,0.096,551
2020-02-03T06:03:29,42.805,6.029,CST-1368DR,6847,9598,15245,0.096,551
2020-02-03T06:06:30,42.805,6.029,CST-1368DR,6847,9599,15246,0.096,551
2020-02-03T06:09:33,42.805,6.029,CST-1368DR,6847,9598,15245,0.096,551
2020-02-03T06:12:34,42.805,6.029,CST-1368DR,6847,9598,15245,0.096,551
2020-02-03T06:15:36,42.805,6.029,CST-1368DR,6847,9597,15243,0.097,551
2020-02-03T06:18:38,42.805,6.029,CST-1368DR,6847,9596,15241,0.097,551
2020-02-03T06:21:39,42.805,6.029,CST-1368DR,6847,9598,15245,0.096,551
2020-02-03T06:24:41,42.805,6.029,CST-1368DR,6847,9598,15244,0.096,551
2020-02-03T06:27:43,42.805,6.029,CST-1368DR,6847,9597,15243,0.097,551
2020-02-03T06:30:45,42.805,6.029,CST-1368DR,6847,9598,15244,0.096,551
2020-02-03T06:33:47,42.805,6.029,CST-1368DR,6847,9597,15243,0.097,551
2020-02-03T06:36:48,42.805,6.029,CST-1368DR,6847,9596,15242,0.097,551
2020-02-03T06:39:50,42.805,6.029,CST-1368DR,6847,9596,15241,0.097,551
2020-02-03T06:42:51,42.805,6.029,CST-1368DR,6847,9596,15242,0.097,551
2020-02-03T06:45:53,42.805,6.029,CST-1368DR,6847,9596,15241,0.097,551
2020-02-03T06:48:55,42.805,6.029,CST-1368DR,6847,9596,15242,0.097,551
2020-02-03T06:51:56,42.805,6.029,CST-1368DR,6847,9596,15242,0.097,551
2020-02-03T06:54:58,42.805,6.029,CST-1368DR,6847,9596,15242,0.097,551
2020-02-03T06:58:00,42.805,6.029,CST-1368DR,6847,9596,15242,0.097,551
2020-02-03T07:01:01,42.805,6.029,CST-1368DR,6847,9594,15238,0.098,551
2020-02-03T07:04:03,42.805,6.029,CST-1368DR,6847,9596,15242,0.097,551
2020-02-03T07:07:04,42.805,6.029,CST-1368DR,6847,9594,15238,0.098,551
2020-02-03T07:10:06,42.805,6.029,CST-1368DR,6847,9596,15241,0.097,551
2020-02-03T07:13:08,42.805,6.029,CST-1368DR,6847,9595,15240,0.097,551
2020-02-03T07:16:09,42.805,6.029,CST-1368DR,6847,9597,15243,0.097,551
2020-02-03T07:19:11,42.805,6.029,CST-1368DR,6847,9597,15242,0.097,551
2020-02-03T07:22:13,42.805,6.029,CST-1368DR,6847,9596,15242,0.097,551
2020-02-03T07:25:15,42.805,6.029,CST-1368DR,6847,9596,15241,0.097,550
2020-02-03T07:28:16,42.805,6.029,CST-1368DR,6847,9597,15242,0.097,551
2020-02-03T07:31:18,42.805,6.029,CST-1368DR,6847,9595,15240,0.097,551
2020-02-03T07:34:20,42.805,6.029,CST-1368DR,6847,9595,15240,0.097,551
2020-02-03T07:37:21,42.805,6.029,CST-1368DR,6847,9597,15242,0.097,551
2020-02-03T07:40:23,42.805,6.029,CST-1368DR,6847,9596,15241,0.097,551
2020-02-03T07:43:25,42.805,6.029,CST-1368DR,6847,9596,15241,0.097,551
2020-02-03T07:46:26,42.805,6.029,CST-1368DR,6847,9596,15242,0.097,551
2020-02-03T07:49:28,42.805,6.029,CST-1368DR,6847,9596,15241,0.097,551
2020-02-03T07:52:30,42.805,6.029,CST-1368DR,6847,9595,15240,0.097,551
2020-02-03T07:55:31,42.805,6.029,CST-1368DR,6847,9595,15240,0.097,551
2020-02-03T07:58:33,42.805,6.029,CST-1368DR,6847,9595,15240,0.097,551
2020-02-03T08:01:35,42.805,6.029,CST-1368DR,6847,9597,15242,0.097,550
2020-02-03T08:04:36,42.805,6.029,CST-1368DR,6847,9596,15242,0.097,551
2020-02-03T08:07:38,42.805,6.029,CST-1368DR,6847,9595,15240,0.097,551
2020-02-03T08:10:39,42.805,6.029,CST-1368DR,6847,9597,15243,0.097,551
2020-02-03T08:13:41,42.805,6.029,CST-1368DR,6847,9596,15242,0.097,551
2020-02-03T08:16:43,42.805,6.029,CST-1368DR,6847,9597,15243,0.097,551
2020-02-03T08:19:44,42.805,6.029,CST-1368DR,6847,9595,15240,0.097,551
2020-02-03T08:22:46,42.805,6.029,CST-1368DR,6847,9597,15244,0.096,551
2020-02-03T08:25:48,42.805,6.029,CST-1368DR,6847,9597,15244,0.096,551
2020-02-03T08:28:49,42.805,6.029,CST-1368DR,6847,9597,15242,0.097,551
2020-02-03T08:31:51,42.805,6.029,CST-1368DR,6847,9596,15242,0.097,551
2020-02-03T08:34:52,42.805,6.029,CST-1368DR,6847,9598,15244,0.096,551
2020-02-03T08:37:54,42.805,6.029,CST-1368DR,6847,9598,15244,0.096,551
2020-02-03T08:40:56,42.805,6.029,CST-1368DR,6847,9597,15244,0.096,551
2020-02-03T08:43:57,42.805,6.029,CST-1368DR,6847,9598,15245,0.096,550
2020-02-03T08:46:59,42.805,6.029,CST-1368DR,6847,9598,15245,0.096,551
2020-02-03T08:50:01,42.805,6.029,CST-1368DR,6847,9598,15244,0.096,551
2020-02-03T08:53:02,42.805,6.029,CST-1368DR,6847,9598,15245,0.096,551
2020-02-03T08:56:04,42.805,6.029,CST-1368DR,6847,9598,15245,0.096,551
2020-02-03T08:59:05,42.805,6.029,CST-1368DR,6847,9598,15244,0.096,551
2020-02-03T09:02:07,42.805,6.029,CST-1368DR,6847,9597,15243,0.097,551
2020-02-03T09:05:09,42.805,6.029,CST-1368DR,6847,9596,15242,0.097,551
2020-02-03T09:08:10,42.805,6.029,CST-1368DR,6847,9598,15244,0.096,550
2020-02-03T09:11:12,42.805,6.029,CST-1368DR,6847,9598,15245,0.096,551
2020-02-03T09:14:14,42.805,6.029,CST-1368DR,6847,9598,15244,0.096,551
2020-02-03T09:17:15,42.805,6.029,CST-1368DR,6847,9597,15242,0.097,551
2020-02-03T09:20:17,42.805,6.029,CST-1368DR,6847,9597,15244,0.096,551
2020-02-03T09:23:18,42.805,6.029,CST-1368DR,6847,9597,15243,0.097,551
2020-02-03T09:26:20,42.805,6.029,CST-1368DR,6847,9596,15242,0.097,551
2020-02-03T09:29:22,42.805,6.029,CST-1368DR,6847,9596,15242,0.097,551
2020-02-03T09:32:23,42.805,6.029,CST-1368DR,6847,9597,15242,0.097,551
2020-02-03T09:35:25,42.805,6.029,CST-1368DR,6847,9598,15244,0.096,551
2020-02-03T09:38:27,42.805,6.029,CST-1368DR,6847,9597,15243,0.097,551
2020-02-03T09:41:28,42.805,6.029,CST-1368DR,6847,9598,15245,0.096,551
2020-02-03T09:44:30,42.805,6.029,CST-1368DR,6847,9597,15242,0.097,551
2020-02-03T09:47:31,42.805,6.029,CST-1368DR,6847,9597,15244,0.096,550
2020-02-03T09:50:33,42.805,6.029,CST-1368DR,6847,9597,15243,0.097,551
2020-02-03T09:53:35,42.805,6.029,CST-1368DR,6847,9598,15244,0.096,551
2020-02-03T09:56:36,42.805,6.029,CST-1368DR,6847,9597,15243,0.097,551
2020-02-03T09:59:38,42.805,6.029,CST-1368DR,6847,9598,15244,0.096,551
2020-02-03T10:02:40,42.805,6.029,CST-1368DR,6847,9597,15243,0.097,551
2020-02-03T10:05:41,42.805,6.029,CST-1368DR,6847,9597,15243,0.097,551
2020-02-03T10:08:43,42.805,6.029,CST-1368DR,6847,9593,15237,0.098,551
2020-02-03T10:11:45,42.805,6.029,CST-1368DR,6847,9596,15242,0.097,551
2020-02-03T10:14:46,42.805,6.029,CST-1368DR,6847,9597,15242,0.097,551
2020-02-03T10:17:48,42.805,6.029,CST-1368DR,6847,9597,15243,0.097,550
2020-02-03T10:20:49,42.805,6.029,CST-1368DR,6847,9597,15244,0.096,550
2020-02-03T10:23:51,42.805,6.029,CST-1368DR,6847,9597,15242,0.097,551
2020-02-03T10:26:53,42.805,6.029,CST-1368DR,6847,9597,15243,0.097,551
2020-02-03T10:29:54,42.805,6.029,CST-1368DR,6847,9597,15244,0.096,551
2020-02-03T10:32:56,42.805,6.029,CST-1368DR,6847,9596,15242,0.097,551
2020-02-03T10:35:58,42.805,6.029,CST-1368DR,6847,9596,15241,0.097,550
2020-02-03T10:38:59,42.805,6.029,CST-1368DR,6847,9597,15243,0.097,550
2020-02-03T10:42:01,42.805,6.029,CST-1368DR,6847,9597,15243,0.097,551
2020-02-03T10:45:02,42.805,6.029,CST-1368DR,6847,9597,15243,0.097,551
2020-02-03T10:48:04,42.805,6.029,CST-1368DR,6847,9597,15243,0.097,551
2020-02-03T10:51:06,42.805,6.029,CST-1368DR,6847,9596,15241,0.097,551
2020-02-03T10:54:08,42.805,6.029,CST-1368DR,6847,9596,15242,0.097,551
2020-02-03T10:57:09,42.805,6.029,CST-1368DR,6846,9597,15246,0.096,551
2020-02-03T11:00:11,42.805,6.029,CST-1368DR,6846,9596,15244,0.096,551
2020-02-03T11:03:13,42.805,6.029,CST-1368DR,6846,9597,15245,0.096,551
2020-02-03T11:06:14,42.805,6.029,CST-1368DR,6846,9596,15244,0.096,551
2020-02-03T11:09:16,42.805,6.029,CST-1368DR,6846,9596,15244,0.096,551
2020-02-03T11:12:18,42.805,6.029,CST-1368DR,6846,9596,15244,0.096,551
2020-02-03T11:15:19,42.805,6.029,CST-1368DR,6847,9597,15243,0.097,551
2020-02-03T11:18:21,42.805,6.029,CST-1368DR,6847,9596,15242,0.097,551
2020-02-03T11:21:22,42.805,6.029,CST-1368DR,6846,9597,15245,0.096,551
2020-02-03T11:24:24,42.805,6.029,CST-1368DR,6846,9597,15245,0.096,551
2020-02-03T11:27:26,42.805,6.029,CST-1368DR,6846,9597,15246,0.096,551
2020-02-03T11:30:27,42.805,6.029,CST-1368DR,6846,9597,15246,0.096,551
2020-02-03T11:33:29,42.805,6.029,CST-1368DR,6846,9594,15240,0.097,551
2020-02-03T11:36:31,42.805,6.029,CST-1368DR,6846,9597,15246,0.096,551
2020-02-03T11:39:32,42.805,6.029,CST-1368DR,6846,9596,15244,0.096,551
2020-02-03T11:42:34,42.805,6.029,CST-1368DR,6846,9597,15245,0.096,551
2020-02-03T11:45:36,42.805,6.029,CST-1368DR,6846,9598,15246,0.096,551
2020-02-03T11:48:37,42.805,6.029,CST-1368DR,6846,9597,15245,0.096,551
2020-02-03T11:51:39,42.805,6.029,CST-1368DR,6846,9598,15246,0.096,551
2020-02-03T11:54:40,42.805,6.029,CST-1368DR,6846,9596,15244,0.096,551
2020-02-03T11:57:42,42.805,6.029,CST-1368DR,6846,9596,15244,0.096,551
2020-02-03T12:00:45,42.805,6.029,CST-1368DR,6846,9596,15244,0.096,551
2020-02-03T12:03:46,42.805,6.029,CST-1368DR,6846,9597,15245,0.096,551
2020-02-03T12:06:48,42.805,6.029,CST-1368DR,6846,9596,15243,0.097,551
2020-02-03T12:09:49,42.805,6.029,CST-1368DR,6846,9596,15243,0.097,550
2020-02-03T12:12:51,42.805,6.029,CST-1368DR,6846,9597,15245,0.096,551
2020-02-03T12:15:53,42.805,6.029,CST-1368DR,6846,9597,15245,0.096,551
2020-02-03T12:18:54,42.805,6.029,CST-1368DR,6846,9596,15243,0.097,551
2020-02-03T12:21:56,42.805,6.029,CST-1368DR,6846,9597,15245,0.096,551
2020-02-03T12:24:58,42.805,6.029,CST-1368DR,6846,9596,15244,0.096,551
2020-02-03T12:27:59,42.805,6.029,CST-1368DR,6846,9597,15245,0.096,551
2020-02-03T12:31:01,42.805,6.029,CST-1368DR,6846,9597,15245,0.096,551
2020-02-03T12:34:03,42.805,6.029,CST-1368DR,6846,9597,15245,0.096,551
2020-02-03T12:37:04,42.805,6.029,CST-1368DR,6846,9597,15245,0.096,551
2020-02-03T12:40:06,42.805,6.029,CST-1368DR,6846,9596,15243,0.097,550
2020-02-03T12:43:08,42.805,6.029,CST-1368DR,6846,9596,15244,0.096,551
2020-02-03T12:46:09,42.805,6.029,CST-1368DR,6846,9596,15244,0.096,551
2020-02-03T12:49:11,42.805,6.029,CST-1368DR,6846,9596,15243,0.097,551
2020-02-03T12:52:13,42.805,6.029,CST-1368DR,6846,9596,15243,0.097,551
2020-02-03T12:55:15,42.805,6.029,CST-1368DR,6846,9595,15243,0.097,551
2020-02-03T12:58:16,42.805,6.029,CST-1368DR,6846,9596,15243,0.097,551
2020-02-03T13:01:18,42.805,6.029,CST-1368DR,6846,9596,15244,0.096,551
2020-02-03T13:04:19,42.805,6.029,CST-1368DR,6846,9596,15243,0.097,551
2020-02-03T13:07:21,42.805,6.029,CST-1368DR,6846,9594,15241,0.097,551
2020-02-03T13:10:23,42.805,6.029,CST-1368DR,6846,9596,15243,0.097,551
2020-02-03T13:13:25,42.805,6.029,CST-1368DR,6846,9596,15243,0.097,551
2020-02-03T13:16:26,42.805,6.029,CST-1368DR,6846,9596,15243,0.097,551
2020-02-03T13:19:28,42.805,6.029,CST-1368DR,6846,9595,15242,0.097,551
2020-02-03T13:22:30,42.805,6.029,CST-1368DR,6846,9595,15243,0.097,551
2020-02-03T13:25:31,42.805,6.029,CST-1368DR,6846,9596,15244,0.096,551
2020-02-03T13:28:33,42.805,6.029,CST-1368DR,6846,9596,15243,0.097,551
2020-02-03T13:31:35,42.805,6.029,CST-1368DR,6846,9595,15243,0.097,551
2020-02-03T13:34:36,42.805,6.029,CST-1368DR,6846,9595,15242,0.097,551
2020-02-03T13:37:38,42.805,6.029,CST-1368DR,6846,9590,15235,0.099,551
2020-02-03T13:40:39,42.805,6.029,CST-1368DR,6846,9596,15243,0.097,551
2020-02-03T13:43:41,42.805,6.029,CST-1368DR,6846,9595,15243,0.097,551
2020-02-03T13:46:43,42.805,6.029,CST-1368DR,6846,9595,15243,0.097,551
2020-02-03T13:49:44,42.805,6.029,CST-1368DR,6846,9596,15243,0.097,551
2020-02-03T13:52:46,42.805,6.029,CST-1368DR,6846,9595,15242,0.097,551
2020-02-03T13:55:48,42.805,6.029,CST-1368DR,6846,9596,15243,0.097,551
2020-02-03T13:58:49,42.805,6.029,CST-1368DR,6846,9594,15240,0.097,551
2020-02-03T14:01:51,42.805,6.029,CST-1368DR,6846,9591,15235,0.099,551
2020-02-03T14:04:52,42.805,6.029,CST-1368DR,6846,9596,15243,0.097,551
2020-02-03T14:07:54,42.805,6.029,CST-1368DR,6846,9594,15241,0.097,551
2020-02-03T14:10:56,42.805,6.029,CST-1368DR,6846,9595,15243,0.097,551
2020-02-03T14:13:57,42.805,6.029,CST-1368DR,6846,9595,15242,0.097,551
2020-02-03T14:16:59,42.805,6.029,CST-1368DR,6846,9596,15243,0.097,551
2020-02-03T14:20:01,42.805,6.029,CST-1368DR,6846,9595,15243,0.097,551
2020-02-03T14:23:02,42.805,6.029,CST-1368DR,6846,9594,15241,0.097,551
2020-02-03T14:26:04,42.805,6.029,CST-1368DR,6846,9594,15240,0.097,551
2020-02-03T14:29:06,42.805,6.029,CST-1368DR,6846,9596,15243,0.097,551
2020-02-03T14:32:07,42.805,6.029,CST-1368DR,6846,9596,15243,0.097,551
2020-02-03T14:35:09,42.805,6.029,CST-1368DR,6846,9595,15242,0.097,551
2020-02-03T14:38:10,42.805,6.029,CST-1368DR,6846,9596,15243,0.097,551
2020-02-03T14:41:12,42.805,6.029,CST-1368DR,6846,9595,15242,0.097,551
2020-02-03T14:44:14,42.805,6.029,CST-1368DR,6846,9595,15243,0.097,551
2020-02-03T14:47:15,42.805,6.029,CST-1368DR,6846,9594,15240,0.097,551
2020-02-03T14:50:17,42.805,6.029,CST-1368DR,6846,9596,15243,0.097,551
2020-02-03T14:53:19,42.805,6.029,CST-1368DR,6846,9595,15243,0.097,551
2020-02-03T14:56:20,42.805,6.029,CST-1368DR,6846,9595,15242,0.097,550
2020-02-03T14:59:22,42.805,6.029,CST-1368DR,6846,9594,15241,0.097,551
2020-02-03T15:02:23,42.805,6.029,CST-1368DR,6846,9595,15243,0.097,551
2020-02-03T15:05:25,42.805,6.029,CST-1368DR,6846,9596,15243,0.097,551
2020-02-03T15:08:27,42.805,6.029,CST-1368DR,6846,9594,15241,0.097,551
2020-02-03T15:11:28,42.805,6.029,CST-1368DR,6846,9596,15243,0.097,551
2020-02-03T15:14:30,42.805,6.029,CST-1368DR,6845,9596,15245,0.096,551
2020-02-03T15:17:32,42.805,6.029,CST-1368DR,6845,9595,15245,0.096,551
2020-02-03T15:20:33,42.805,6.029,CST-1368DR,6845,9595,15244,0.096,551
2020-02-03T15:23:35,42.805,6.029,CST-1368DR,6845,9595,15244,0.096,551
2020-02-03T15:26:36,42.805,6.029,CST-1368DR,6845,9595,15244,0.096,551
2020-02-03T15:29:38,42.805,6.029,CST-1368DR,6845,9592,15240,0.097,551
2020-02-03T15:32:40,42.805,6.029,CST-1368DR,6845,9596,15245,0.096,551
2020-02-03T15:35:41,42.805,6.029,CST-1368DR,6845,9594,15243,0.097,551
2020-02-03T15:38:43,42.805,6.029,CST-1368DR,6845,9594,15242,0.097,551
2020-02-03T15:41:45,42.805,6.029,CST-1368DR,6845,9593,15241,0.097,551
2020-02-03T15:44:46,42.805,6.029,CST-1368DR,6845,9595,15244,0.096,551
2020-02-03T15:47:48,42.805,6.029,CST-1368DR,6845,9595,15244,0.096,551
2020-02-03T15:50:50,42.805,6.029,CST-1368DR,6845,9595,15244,0.096,551
2020-02-03T15:53:51,42.805,6.029,CST-1368DR,6845,9595,15245,0.096,551
2020-02-03T15:56:53,42.805,6.029,CST-1368DR,6845,9595,15244,0.096,551
2020-02-03T15:59:55,42.805,6.029,CST-1368DR,6845,9595,15244,0.096,551
2020-02-03T16:02:56,42.805,6.029,CST-1368DR,6845,9595,15245,0.096,550
2020-02-03T16:05:58,42.805,6.029,CST-1368DR,6845,9594,15243,0.097,551
2020-02-03T16:08:59,42.805,6.029,CST-1368DR,6845,9595,15244,0.096,551
2020-02-03T16:12:01,42.805,6.029,CST-1368DR,6845,9594,15242,0.097,551
2020-02-03T16:15:03,42.805,6.029,CST-1368DR,6845,9594,15242,0.097,551
2020-02-03T16:18:04,42.805,6.029,CST-1368DR,6845,9594,15243,0.097,551
2020-02-03T16:21:06,42.805,6.029,CST-1368DR,6845,9594,15242,0.097,551
2020-02-03T16:24:08,42.805,6.029,CST-1368DR,6845,9594,15243,0.097,551
2020-02-03T16:27:09,42.805,6.029,CST-1368DR,6845,9593,15240,0.097,551
2020-02-03T16:30:11,42.805,6.029,CST-1368DR,6845,9594,15243,0.097,551
2020-02-03T16:33:13,42.805,6.029,CST-1368DR,6845,9594,15242,0.097,551
2020-02-03T16:36:14,42.805,6.029,CST-1368DR,6845,9594,15243,0.097,551
2020-02-03T16:39:16,42.805,6.029,CST-1368DR,6845,9594,15243,0.097,551
2020-02-03T16:42:18,42.805,6.029,CST-1368DR,6845,9594,15242,0.097,551
2020-02-03T16:45:19,42.805,6.029,CST-1368DR,6845,9595,15245,0.096,551
2020-02-03T16:48:21,42.805,6.029,CST-1368DR,6845,9593,15241,0.097,551
2020-02-03T16:51:22,42.805,6.029,CST-1368DR,6845,9594,15242,0.097,551